Location: Vesunti
(61.5000°N, 22.8333°E)
Time: 20:33:49
(UTC+00:00)

COSMOS 2428 - Pass Details

Date: 17 February 2020
Orbit: 846 x 856 km, 70.9° (Epoch: 07 April)

Event Time Altitude Azimuth Distance (km) Brightness Sun altitude
Exits shadow 04:28:32 17° 279° (W) 2,056 4.1 -12.4°
Maximum altitude 04:32:32 38° 340° (NNW) 1,282 3.5 -11.9°
Drops below altitude 10° 04:37:54 10° 49° (NE) 2,502 5.8 -11.3°
Sets 04:40:33 0° 57° (ENE) 3,439 6.8 -10.9°
